#timestamp,LO_Frequency,Hit,StdDev 
1503921615.1,286047000.9,N,1.1
1503921635.8,286047000.3,N,1.1
1503921655.7,286046999.8,N,1.1
1503921675.5,286047000.4,N,1.1
1503921695.3,286047000.4,N,1.1
1503921715.2,286047000.0,N,1.1
1503921735.0,286047000.4,N,1.1
1503921735.9,286047000.4,N,1.0
1503921755.7,286046999.8,N,1.0
1503921775.6,286047002.8,N,1.0
1503921795.4,286046999.7,N,1.0
1503921815.2,286047002.3,N,1.0
1503921835.1,286047002.5,N,1.0
1503921836.0,286047002.5,N,1.1
1503921855.8,286047001.5,N,1.1
1503921875.6,286047002.7,N,1.2
1503921895.5,286047002.6,N,1.2
1503921915.3,286047001.6,N,1.3
1503921935.1,286047002.6,N,1.2
1503921955.9,286047000.0,N,1.2
1503921975.7,286047000.3,N,1.2
1503921995.5,286046998.1,N,1.2
1503922015.4,286047001.1,N,1.2
1503922035.2,286046998.9,N,1.3
1503922055.0,286046999.6,N,1.3
1503922055.9,286046999.6,N,1.3
1503922075.8,286046999.5,N,1.3
1503922095.6,286046999.1,N,1.3
1503922115.4,286046999.1,N,1.4
1503922135.3,286046996.8,N,1.5
1503922155.1,286046999.6,N,1.5
1503922175.8,286046997.8,N,1.5
1503922195.7,286046996.6,N,1.7
1503922215.5,286046997.1,N,1.8
1503922235.3,286046997.8,N,1.8
1503922255.2,286046997.6,N,1.9
1503922275.0,286046997.9,N,1.9
1503922275.9,286046997.9,N,1.9
1503922295.7,286046995.3,N,2.1
1503922315.6,286046995.6,N,2.1
1503922335.4,286046995.7,N,2.3
1503922355.2,286046995.0,N,2.3
1503922375.1,286046995.4,N,2.3
1503922376.0,286046995.4,N,2.3
1503922395.8,286046996.1,N,2.3
1503922415.6,286046993.3,N,2.3
1503922435.5,286046995.6,N,2.2
1503922455.3,286046995.4,N,2.1
1503922475.1,286046995.1,N,1.9
1503922495.9,286046995.8,N,1.9
1503922515.7,286046993.4,Y,0.0
1503922535.5,286046996.5,P,0.4
1503922555.4,286046997.8,P,0.5
1503922575.2,286046997.3,P,0.5
1503922595.0,286046996.9,Y,0.0
1503922595.9,286046996.9,P,0.2
1503922615.8,286047000.3,N,1.5
1503922635.6,286047000.2,N,1.6
1503922655.4,286047001.1,N,1.7
1503922675.3,286046998.1,N,1.6
1503922695.1,286046998.4,N,1.5
1503922715.8,286046998.2,N,1.4
1503922735.7,286046998.9,N,1.4
1503922755.5,286046998.8,N,1.3
1503922775.3,286046999.2,N,1.2
1503922795.2,286046998.3,N,1.2
1503922815.0,286046999.3,N,1.2
1503922815.9,286046999.3,N,1.1
1503922835.7,286046998.6,N,1.1
1503922855.6,286047001.1,N,1.2
1503922875.4,286046999.2,N,1.1
1503922895.2,286046998.4,N,1.1
1503922915.1,286046999.5,N,1.1
1503922916.0,286046999.5,N,1.1
1503922935.8,286046996.7,Y,0.0
1503922955.6,286046998.9,P,0.1
1503922975.5,286046998.8,P,0.1
1503922995.3,286047001.0,P,0.9
1503923015.1,286047000.6,N,0.9
1503923035.9,286046998.3,N,1.0
1503923055.7,286046999.6,N,0.9
1503923075.5,286046998.9,N,0.9
1503923095.4,286047000.5,N,0.9
1503923115.2,286047000.0,N,0.9
1503923135.0,286047000.7,N,0.9
1503923135.9,286047000.7,N,0.9
1503923155.8,286046999.0,N,0.9
1503923175.6,286046998.9,N,0.9
1503923195.4,286046998.8,N,0.9
1503923215.3,286046998.9,N,0.9
1503923235.1,286046998.6,N,0.9
1503923236.0,286046998.6,N,0.9
1503923255.8,286046998.7,N,0.9
1503923275.7,286047001.2,N,0.9
1503923295.5,286046998.5,N,0.9
1503923315.3,286046999.1,N,0.9
1503923335.2,286046999.6,N,0.9
1503923355.9,286046996.5,Y,0.0
1503923375.7,286046996.9,P,1.3
1503923395.6,286046998.4,N,1.0
1503923415.4,286046998.8,N,0.9
1503923435.2,286046999.6,N,1.0
1503923455.1,286046998.1,N,0.9
1503923456.0,286046998.1,N,0.8
1503923475.8,286046999.1,N,0.8
1503923495.6,286046998.6,N,0.8
1503923515.5,286046998.8,N,0.7
1503923535.3,286046998.9,N,0.7
1503923555.1,286046999.0,N,0.7
1503923575.9,286046997.3,Y,0.0
1503923595.7,286047000.7,P,1.0
1503923615.5,286047001.1,N,1.1
1503923635.4,286046998.5,N,1.2
1503923655.2,286046998.8,N,1.1
1503923675.0,286046998.3,N,1.1
1503923675.9,286046998.3,N,1.1
1503923695.8,286046999.0,N,1.0
1503923715.6,286046998.4,N,1.0
1503923735.4,286047000.7,N,1.1
1503923755.2,286047000.7,N,1.1
1503923775.1,286047001.0,N,1.1
1503923776.0,286047001.0,N,1.2
1503923795.8,286047000.8,N,1.2
1503923815.6,286047000.8,N,1.2
1503923835.5,286046998.5,N,1.2
1503923855.3,286046998.8,N,1.1
1503923875.1,286046998.8,N,1.1
1503923895.9,286046999.0,N,1.1
1503923915.7,286046999.6,N,1.1
1503923935.5,286046996.7,Y,0.0
1503923955.4,286046996.5,P,1.5
1503923975.2,286046999.2,N,1.4
1503923995.0,286046998.6,N,1.2
1503923995.9,286046998.6,N,1.1
1503924015.8,286046998.5,N,1.0
1503924035.6,286046998.6,N,0.9
1503924055.4,286047001.2,N,1.2
1503924075.3,286047001.0,N,1.3
1503924095.1,286046998.3,N,1.3
1503924115.8,286046999.6,N,1.2
1503924135.7,286046996.6,N,1.4
1503924155.5,286046996.9,N,1.4
1503924175.3,286046997.1,N,1.4
1503924195.2,286046996.7,N,1.5
1503924215.9,286046996.7,N,1.5
1503924235.7,286046996.9,N,1.5
1503924255.6,286046996.5,N,1.5
1503924275.4,286046999.1,N,1.5
1503924295.2,286046999.0,N,1.4
1503924315.1,286046999.0,N,1.4
1503924316.0,286046999.0,N,1.4
1503924335.8,286046996.5,N,1.4
1503924355.6,286046998.8,N,1.4
1503924375.5,286046998.6,N,1.4
1503924395.3,286047001.0,N,1.4
1503924415.1,286047001.1,N,1.5
1503924435.9,286046998.7,N,1.5
1503924455.7,286046998.6,N,1.4
1503924475.5,286046998.7,N,1.4
1503924495.4,286046998.5,N,1.4
1503924515.2,286047001.2,N,1.4
1503924535.0,286047000.6,N,1.5
1503924535.9,286047000.6,N,1.5
1503924555.8,286046998.8,N,1.5
1503924575.6,286046998.5,N,1.5
1503924595.4,286047000.9,N,1.6
1503924615.3,286047000.6,N,1.5
1503924635.1,286047000.8,N,1.5
1503924636.0,286047000.8,N,1.6
1503924655.8,286046998.5,N,1.6
1503924675.7,286046999.9,N,1.5
1503924695.5,286047000.9,N,1.5
1503924715.3,286047000.6,N,1.5
1503924735.2,286047000.1,N,1.4
1503924755.9,286047002.7,N,1.5
1503924775.7,286047002.3,N,1.4
1503924795.5,286047002.4,N,1.4
1503924815.4,286047002.3,N,1.5
1503924835.2,286047002.2,N,1.5
1503924855.0,286047002.5,N,1.5
1503924856.0,286047002.5,N,1.6
1503924875.8,286047002.2,N,1.4
1503924895.6,286047002.3,N,1.4
1503924915.4,286046999.7,N,1.4
1503924935.3,286047000.2,N,1.4
1503924955.1,286047000.5,N,1.4
1503924975.8,286047002.8,N,1.4
1503924995.7,286047002.5,N,1.4
1503925015.5,286047000.2,N,1.3
1503925035.3,286046999.8,N,1.3
1503925055.2,286047000.2,N,1.3
1503925075.0,286047002.7,N,1.3
1503925075.9,286047002.7,N,1.3
1503925095.7,286046999.7,N,1.3
1503925115.6,286046999.8,N,1.2
1503925135.4,286047002.1,N,1.2
1503925155.2,286047002.8,N,1.3
1503925175.1,286047001.6,N,1.3
1503925176.0,286047001.6,N,1.3
1503925195.8,286047002.1,N,1.1
